When you browse on this site, cookies collect data to enhance your experience and personalize the content and advertising you see.
Visit our Privacy Policy to learn more. By continuing to use the site, you agree to this use of cookies and data.
  • En España
  • Lista de países
  • Para 7 días
  • Temperatura del agua
  • El tiempo en el mapa
  • Informadores
  • user-avatar
    Iniciar sesión

    Tiempo cada hora Sumy

    Hoy, 3 Junio, Miércoles

    Tiempo Temperatura Precipitaciones Viento Presión Humedad
    00:00 +10°C° 0 mm 1 mps 744 mmHg 89%
    01:00 +10°C° 0 mm 1 mps 744 mmHg 90%
    02:00 +10°C° 0 mm 1 mps 744 mmHg 91%
    03:00 +10°C° 0 mm 1 mps 744 mmHg 91%
    04:00 +10°C° 0 mm 1 mps 743 mmHg 91%
    05:00 +11°C° 0 mm 1 mps 743 mmHg 91%
    06:00 +13°C° 0 mm 1 mps 743 mmHg 85%
    07:00 +14°C° 0 mm 1 mps 744 mmHg 78%
    08:00 +16°C° 0 mm 1 mps 744 mmHg 72%
    09:00 +18°C° 0 mm 1 mps 744 mmHg 68%
    10:00 +19°C° 0 mm 1 mps 743 mmHg 65%
    11:00 +20°C° 0 mm 1 mps 743 mmHg 61%
    12:00 +20°C° 0.5 mm 1 mps 743 mmHg 63%
    13:00 +20°C° 0.5 mm 1 mps 743 mmHg 65%
    14:00 +20°C° 0.5 mm 1 mps 743 mmHg 66%
    15:00 +20°C° 0.7 mm 1 mps 743 mmHg 69%
    16:00 +19°C° 0.7 mm 1 mps 742 mmHg 71%
    17:00 +19°C° 0.7 mm 1 mps 742 mmHg 74%
    18:00 +18°C° 0.2 mm 1 mps 742 mmHg 78%
    19:00 +15°C° 0.2 mm 1 mps 742 mmHg 82%
    20:00 +13°C° 0.2 mm 0 mps 742 mmHg 86%
    21:00 +13°C° 0.1 mm 1 mps 742 mmHg 87%
    22:00 +13°C° 0.1 mm 1 mps 742 mmHg 89%
    23:00 +13°C° 0.1 mm 1 mps 742 mmHg 90%

    Mañana, 4 Junio, Jueves

    Tiempo Temperatura Precipitaciones Viento Presión Humedad
    00:00 +13°C° 0.6 mm 1 mps 742 mmHg 92%
    01:00 +13°C° 0.6 mm 1 mps 742 mmHg 94%
    02:00 +13°C° 0.6 mm 2 mps 742 mmHg 97%
    03:00 +13°C° 1 mm 1 mps 742 mmHg 97%
    04:00 +13°C° 1 mm 1 mps 742 mmHg 97%
    05:00 +13°C° 1 mm 1 mps 742 mmHg 97%
    06:00 +13°C° 0.7 mm 2 mps 742 mmHg 95%
    07:00 +12°C° 0.7 mm 3 mps 742 mmHg 93%
    08:00 +13°C° 0.7 mm 4 mps 743 mmHg 92%
    09:00 +14°C° 0.3 mm 4 mps 743 mmHg 87%
    10:00 +15°C° 0.3 mm 4 mps 743 mmHg 82%
    11:00 +17°C° 0.3 mm 5 mps 743 mmHg 77%
    12:00 +17°C° 0.4 mm 5 mps 743 mmHg 75%
    13:00 +19°C° 0.4 mm 5 mps 743 mmHg 73%
    14:00 +19°C° 0.4 mm 5 mps 743 mmHg 72%
    15:00 +19°C° 0.3 mm 5 mps 743 mmHg 74%
    16:00 +19°C° 0.3 mm 4 mps 743 mmHg 76%
    17:00 +19°C° 0.3 mm 4 mps 743 mmHg 79%
    18:00 +17°C° 0.4 mm 4 mps 743 mmHg 82%
    19:00 +15°C° 0.4 mm 4 mps 743 mmHg 85%
    20:00 +14°C° 0.4 mm 4 mps 743 mmHg 88%
    21:00 +13°C° 0 mm 4 mps 744 mmHg 89%
    22:00 +13°C° 0 mm 4 mps 744 mmHg 90%
    23:00 +12°C° 0 mm 5 mps 744 mmHg 91%

    Pasado mañana, 5 Junio, Viernes

    Tiempo Temperatura Precipitaciones Viento Presión Humedad
    00:00 +12°C° 0.1 mm 5 mps 744 mmHg 91%
    01:00 +12°C° 0.1 mm 4 mps 744 mmHg 92%
    02:00 +12°C° 0.1 mm 4 mps 745 mmHg 92%
    03:00 +11°C° 0.1 mm 4 mps 745 mmHg 92%
    04:00 +10°C° 0.1 mm 5 mps 744 mmHg 93%
    05:00 +10°C° 0.1 mm 5 mps 744 mmHg 93%
    06:00 +12°C° 0 mm 5 mps 745 mmHg 91%
    07:00 +13°C° 0 mm 6 mps 745 mmHg 89%
    08:00 +14°C° 0 mm 6 mps 745 mmHg 87%
    09:00 +15°C° 0.4 mm 6 mps 745 mmHg 87%
    10:00 +15°C° 0.4 mm 7 mps 745 mmHg 88%
    11:00 +16°C° 0.4 mm 7 mps 745 mmHg 88%
    12:00 +16°C° 0.2 mm 7 mps 745 mmHg 89%
    13:00 +16°C° 0.2 mm 6 mps 745 mmHg 90%
    14:00 +15°C° 0.2 mm 6 mps 745 mmHg 91%
    15:00 +17°C° 0.1 mm 6 mps 745 mmHg 89%
    16:00 +19°C° 0.1 mm 5 mps 745 mmHg 88%
    17:00 +20°C° 0.1 mm 4 mps 745 mmHg 86%
    18:00 +19°C° 0.7 mm 4 mps 745 mmHg 87%
    19:00 +19°C° 0.7 mm 4 mps 745 mmHg 89%
    20:00 +18°C° 0.7 mm 4 mps 745 mmHg 90%
    21:00 +18°C° 0.2 mm 4 mps 746 mmHg 91%
    22:00 +18°C° 0.2 mm 4 mps 746 mmHg 92%
    23:00 +17°C° 0.2 mm 4 mps 746 mmHg 92%

    6 Junio, Sábado

    Tiempo Temperatura Precipitaciones Viento Presión Humedad
    00:00 +17°C° 0.1 mm 4 mps 746 mmHg 93%
    01:00 +15°C° 0.1 mm 4 mps 746 mmHg 94%
    02:00 +15°C° 0.1 mm 4 mps 746 mmHg 94%
    03:00 +14°C° 0 mm 4 mps 747 mmHg 94%
    04:00 +14°C° 0 mm 4 mps 747 mmHg 95%
    05:00 +14°C° 0 mm 4 mps 747 mmHg 95%
    06:00 +15°C° 0 mm 5 mps 747 mmHg 92%
    07:00 +17°C° 0 mm 5 mps 748 mmHg 90%
    08:00 +19°C° 0 mm 5 mps 748 mmHg 87%
    09:00 +20°C° 0 mm 6 mps 748 mmHg 85%
    10:00 +22°C° 0 mm 6 mps 749 mmHg 82%
    11:00 +23°C° 0 mm 6 mps 749 mmHg 79%
    12:00 +24°C° 0 mm 6 mps 749 mmHg 77%
    13:00 +24°C° 0 mm 6 mps 749 mmHg 74%
    14:00 +26°C° 0 mm 7 mps 749 mmHg 71%
    15:00 +26°C° 0 mm 6 mps 749 mmHg 73%
    16:00 +25°C° 0 mm 5 mps 749 mmHg 75%
    17:00 +25°C° 0 mm 4 mps 749 mmHg 77%
    18:00 +23°C° 0 mm 4 mps 749 mmHg 81%
    19:00 +21°C° 0 mm 3 mps 750 mmHg 85%
    20:00 +20°C° 0 mm 3 mps 750 mmHg 89%
    21:00 +19°C° 0 mm 3 mps 750 mmHg 89%
    22:00 +19°C° 0 mm 3 mps 751 mmHg 90%
    23:00 +18°C° 0 mm 3 mps 751 mmHg 90%

    7 Junio, Domingo

    Tiempo Temperatura Precipitaciones Viento Presión Humedad
    00:00 +18°C° 0 mm 3 mps 751 mmHg 90%
    01:00 +17°C° 0 mm 3 mps 751 mmHg 90%
    02:00 +17°C° 0 mm 2 mps 751 mmHg 89%
    03:00 +17°C° 0 mm 2 mps 752 mmHg 89%
    04:00 +17°C° 0 mm 2 mps 752 mmHg 89%
    05:00 +17°C° 0 mm 2 mps 752 mmHg 89%
    06:00 +19°C° 0 mm 2 mps 752 mmHg 85%
    07:00 +20°C° 0 mm 2 mps 753 mmHg 80%
    08:00 +23°C° 0 mm 2 mps 753 mmHg 75%
    09:00 +24°C° 0 mm 2 mps 753 mmHg 72%
    10:00 +25°C° 0 mm 3 mps 753 mmHg 69%
    11:00 +27°C° 0 mm 3 mps 753 mmHg 65%
    12:00 +27°C° 0 mm 3 mps 753 mmHg 64%
    13:00 +27°C° 0 mm 3 mps 753 mmHg 64%
    14:00 +27°C° 0 mm 3 mps 753 mmHg 63%
    15:00 +27°C° 0 mm 3 mps 752 mmHg 65%
    16:00 +27°C° 0 mm 2 mps 752 mmHg 68%
    17:00 +27°C° 0 mm 2 mps 752 mmHg 71%
    18:00 +25°C° 0 mm 2 mps 752 mmHg 73%
    19:00 +23°C° 0 mm 2 mps 752 mmHg 76%
    20:00 +20°C° 0 mm 2 mps 752 mmHg 78%
    21:00 +19°C° 0 mm 2 mps 752 mmHg 78%
    22:00 +19°C° 0 mm 2 mps 752 mmHg 79%
    23:00 +18°C° 0 mm 2 mps 752 mmHg 79%

    8 Junio, Lunes

    Tiempo Temperatura Precipitaciones Viento Presión Humedad
    00:00 +18°C° 0 mm 2 mps 752 mmHg 79%
    01:00 +18°C° 0 mm 2 mps 752 mmHg 79%
    02:00 +17°C° 0 mm 2 mps 752 mmHg 80%
    03:00 +17°C° 0 mm 2 mps 752 mmHg 81%
    04:00 +18°C° 0 mm 2 mps 752 mmHg 83%
    05:00 +18°C° 0 mm 2 mps 752 mmHg 85%
    06:00 +20°C° 0 mm 3 mps 752 mmHg 83%
    07:00 +21°C° 0 mm 3 mps 752 mmHg 80%
    08:00 +24°C° 0 mm 3 mps 752 mmHg 78%
    09:00 +25°C° 0 mm 3 mps 752 mmHg 73%
    10:00 +27°C° 0 mm 3 mps 752 mmHg 69%
    11:00 +28°C° 0 mm 3 mps 752 mmHg 65%
    12:00 +28°C° 0.1 mm 3 mps 752 mmHg 64%
    13:00 +28°C° 0.1 mm 3 mps 752 mmHg 64%
    14:00 +29°C° 0.1 mm 3 mps 752 mmHg 63%
    15:00 +28°C° 0.2 mm 3 mps 751 mmHg 68%
    16:00 +27°C° 0.2 mm 3 mps 751 mmHg 72%
    17:00 +27°C° 0.2 mm 3 mps 751 mmHg 77%
    18:00 +25°C° 0.1 mm 3 mps 751 mmHg 82%
    19:00 +24°C° 0.1 mm 3 mps 751 mmHg 86%
    20:00 +21°C° 0.1 mm 3 mps 751 mmHg 91%
    21:00 +21°C° 0 mm 3 mps 752 mmHg 92%
    22:00 +20°C° 0 mm 3 mps 752 mmHg 93%
    23:00 +20°C° 0 mm 4 mps 752 mmHg 93%
    Mostrar más